Keps
Threads by month
- ----- 2024 -----
- December
- November
- October
- September
- August
- July
- June
- May
- April
- March
- February
- January
- ----- 2023 -----
- December
- November
- October
- September
- August
- July
- June
- May
- April
- March
- February
- January
- ----- 2022 -----
- December
- November
- October
- September
- August
- July
- June
- May
- April
- March
- February
- January
- ----- 2021 -----
- December
- November
- October
- September
- August
- July
- June
- May
- April
- March
- February
- January
- ----- 2020 -----
- December
- November
- October
- September
- August
- July
- June
- May
- April
- March
- February
- January
- ----- 2019 -----
- December
- November
- October
- September
- August
- July
- June
- May
- April
- March
- February
- January
- ----- 2018 -----
- December
- November
- October
- September
- August
- July
- June
- May
- April
- March
- February
- January
- ----- 2017 -----
- December
- November
- October
- September
- August
- July
- June
- May
- April
- March
- February
- January
- ----- 2016 -----
- December
- November
- October
- September
- August
- July
- June
- May
- April
- March
- February
- January
- ----- 2015 -----
- December
- November
- October
- September
- August
- July
- June
- May
- April
- March
- February
- January
- ----- 2014 -----
- December
- November
- October
- September
- August
- July
- June
- May
- April
- March
- February
- January
- ----- 2013 -----
- December
- November
- October
- September
- August
- July
- June
- May
- April
- March
- February
- January
- ----- 2012 -----
- December
- November
- October
- September
- August
- July
- June
- May
- April
- March
- February
- January
- ----- 2011 -----
- December
- November
- October
- September
- August
- July
- June
- May
- April
- March
- February
- January
- ----- 2010 -----
- December
- November
- October
- September
- August
- July
- June
- May
- April
- March
- February
- January
- ----- 2009 -----
- December
- November
- October
- September
- August
- July
- June
- May
- April
- March
- February
- January
- ----- 2008 -----
- December
- November
- October
- September
- August
- July
- June
- May
- April
- March
- February
- January
- ----- 2007 -----
- December
- November
- October
- September
- August
- July
- June
- May
- April
- March
- February
- January
- ----- 2006 -----
- December
- November
- October
- September
February 2017
- 1 participants
- 7 discussions
SB KEPS @ AMSAT $ORB17054.N
2Line Orbital Elements 17054.AMSAT
HR AMSAT ORBITAL ELEMENTS FOR AMATEUR SATELLITES IN NASA FORMAT
FROM WA5QGD FORT WORTH,TX February 23, 2017
BID: ORB17054.N
DECODE 2-LINE ELSETS WITH THE FOLLOWING KEY:
1 AAAAAU 00 0 0 BBBBB.BBBBBBBB .CCCCCCCC 00000-0 00000-0 0 DDDZ
2 AAAAA EEE.EEEE FFF.FFFF GGGGGGG HHH.HHHH III.IIII JJ.JJJJJJJJKKKKKZ
KEY: A-CATALOGNUM B-EPOCHTIME C-DECAY D-ELSETNUM E-INCLINATION F-RAAN
G-ECCENTRICITY H-ARGPERIGEE I-MNANOM J-MNMOTION K-ORBITNUM Z-CHECKSUM
TO ALL RADIO AMATEURS BT
AO-07
1 07530U 74089B 17054.83876162 -.00000040 00000-0 28123-4 0 9996
2 07530 101.6163 25.8253 0011957 180.6947 247.7429 12.53625546934659
UO-11
1 14781U 84021B 17053.72552246 .00000160 00000-0 26075-4 0 9996
2 14781 97.7143 103.5590 0007848 205.8757 154.2065 14.82859834773381
LO-19
1 20442U 90005G 17054.73911631 .00000008 00000-0 18992-4 0 9995
2 20442 98.5673 352.4605 0012735 119.9848 240.2602 14.32849330415378
HUBBLE
1 20580U 90037B 17054.17719194 .00000678 00000-0 30977-4 0 9991
2 20580 28.4707 40.8281 0002811 32.4513 72.7644 15.08678290273040
MET-2/21
1 22782U 93055A 17054.21195184 -.00000016 00000-0 -27481-4 0 9996
2 22782 82.5482 114.0456 0023069 33.9078 24.6816 13.83797114185930
AO-27
1 22825U 93061C 17053.86149290 .00000011 00000-0 21768-4 0 9993
2 22825 98.7972 18.1307 0007590 310.7450 49.3072 14.29986519221064
IO-26
1 22826U 93061D 17054.82816262 .00000013 00000-0 22585-4 0 9991
2 22826 98.7916 19.2027 0007977 296.8882 63.1484 14.30314388221372
FO-29
1 24278U 96046B 17054.21401215 -.00000038 00000-0 40419-6 0 9997
2 24278 98.5797 312.5451 0349326 272.6689 83.4519 13.53074773 13462
NOAA-15
1 25338U 98030A 17054.52933846 .00000031 00000-0 32132-4 0 9997
2 25338 98.7850 65.1967 0010749 171.1254 189.0118 14.25778344976810
GO-32
1 25397U 98043D 17053.91417705 -.00000008 00000-0 15573-4 0 9994
2 25397 098.5985 358.7313 0001316 025.2201 334.9042 14.23615441967317
ISS
1 25544U 98067A 17054.88727694 .00003085 00000-0 53292-4 0 9999
2 25544 51.6408 243.0964 0006557 223.0397 280.2312 15.54424142 44135
NO-44
1 26931U 01043C 17054.21026887 -.00000017 00000-0 25365-4 0 9994
2 26931 67.0521 25.2679 0007267 280.5368 79.4914 14.30447690804047
SO-50
1 27607U 02058C 17054.52946120 .00000078 00000-0 31839-4 0 9996
2 27607 64.5551 112.8708 0037626 148.9681 211.3655 14.75286121762340
CO-55
1 27844U 03031E 17053.94840000 .00000074 00000-0 53144-4 0 9995
2 27844 098.6919 064.6069 0009006 323.1096 036.9461 14.22016264708045
CO-57
1 27848U 03031J 17054.55075645 .00000065 00000-0 49429-4 0 9993
2 27848 98.7015 65.4099 0009044 331.1005 28.9670 14.21633840708058
RS-22
1 27939U 03042A 17054.86451819 .00000208 00000-0 45929-4 0 9991
2 27939 97.9200 203.3796 0012161 221.3113 283.5497 14.66524543716702
NOAA-18
1 28654U 05018A 17054.56261913 .00000040 00000-0 47221-4 0 9993
2 28654 99.1910 73.9520 0014763 33.9654 326.2459 14.12326106606226
CO-58
1 28895U 05043F 17054.73728611 .00000257 00000-0 58397-4 0 9996
2 28895 97.8502 222.3457 0017795 139.5850 220.6678 14.63345749603893
CO-65
1 32785U 08021C 17054.85458739 .00000403 00000-0 49742-4 0 9999
2 32785 97.5778 84.2413 0013248 177.4427 182.6860 14.87801447478040
AAUSAT2
1 32788U 08021F 17054.82735236 .00000636 00000-0 65194-4 0 9996
2 32788 97.5732 95.0107 0012997 144.4581 215.7507 14.93694112478758
DO-64
1 32789U 08021G 17054.83870781 .00002984 00000-0 21748-3 0 9997
2 32789 97.5748 115.4073 0014243 125.1927 235.0635 15.04426283479822
CO-66
1 32791U 08021J 17054.49471754 .00000630 00000-0 70522-4 0 9990
2 32791 97.5763 87.9036 0013946 165.3273 194.8353 14.90097740478210
RS-30
1 32953U 08025A 17054.71920757 .00000019 00000-0 66954-4 0 9996
2 32953 82.5048 310.2268 0018663 170.6899 189.4531 12.43074717397328
PRISM
1 33493U 09002B 17054.89378567 .00001322 00000-0 12493-3 0 9993
2 33493 98.1847 292.4479 0017078 95.3849 264.9303 14.95476956438849
NOAA-19
1 33591U 09005A 17054.55134921 .00000119 00000-0 89677-4 0 9994
2 33591 99.0780 19.8524 0013150 229.5045 130.4981 14.12155514414613
TISAT-1
1 36799U 10035E 17054.27329808 .00000826 00000-0 91197-4 0 9996
2 36799 98.0471 174.8128 0011969 347.2070 12.8841 14.90235378358816
JUGNU
1 37839U 11058B 17054.20622892 .00000316 00000-0 26752-4 0 9999
2 37839 19.9621 61.5906 0019003 7.8183 73.5621 14.12572107277568
SRMSAT
1 37841U 11058D 17054.24539946 .00000306 00000-0 22947-4 0 9994
2 37841 19.9720 100.6906 0011626 269.9445 159.2914 14.10565338277171
AO-71
1 37854U 11061E 17054.41589259 .00001957 00000-0 11273-3 0 9995
2 37854 101.7096 230.1373 0168881 51.5820 310.0417 15.03642314289830
HRBE
1 37855U 11061F 17054.81309672 .00002117 00000-0 11898-3 0 9991
2 37855 101.7219 228.6166 0182106 56.2236 305.6171 15.02598045289768
ALMASAT-1
1 38078U 12006B 17054.86527062 .00020357 35494-5 25439-3 0 9991
2 38078 69.4393 76.1456 0328087 97.3680 266.4922 15.16492454267571
HORYU-2
1 38340U 12025D 17054.89003718 .00000390 00000-0 65711-4 0 9997
2 38340 98.3742 54.8388 0010518 295.1061 64.9055 14.75257217256584
RS-40
1 38735U 12041C 17054.84164800 .00000003 00000-0 -46562-4 0 9993
2 38735 82.4754 34.8549 0015629 276.4288 83.5011 12.42573059207613
BEESAT-3
1 39134U 13015E 17053.94773189 .00002037 00000-0 11070-3 0 9998
2 39134 064.8684 235.0500 0028691 300.1275 059.7008 15.17293700211768
BEESAT-2
1 39136U 13015G 17053.83739141 .00001842 00000-0 10870-3 0 9998
2 39136 64.8687 244.5491 0027008 299.4442 60.3988 15.14682686211952
ZACUBE-1
1 39417U 13066B 17053.74970898 .00000381 00000-0 55058-4 0 9997
2 39417 97.6459 101.4506 0057983 284.5156 74.9629 14.80623330175848
TRITON-1
1 39427U 13066M 17053.83891956 .00000408 00000-0 73602-4 0 9990
2 39427 97.6455 76.8181 0114291 355.7900 4.2334 14.67382585174277
GOMX-1
1 39430U 13066Q 17054.72575426 .00000456 00000-0 91737-4 0 9996
2 39430 97.6639 62.4261 0153019 41.8009 319.4761 14.58791555173397
LO-74
1 39440U 13066AA 17053.83388424 .00000360 00000-0 57837-4 0 9995
2 39440 97.6429 91.6208 0079694 312.0011 47.4430 14.75369531175232
AO-73
1 39444U 13066AE 17053.85274020 .00000461 00000-0 64058-4 0 9992
2 39444 97.6472 102.4578 0057148 281.2520 78.2274 14.81336839174685
SPROUT
1 39770U 14029E 17054.84645036 .00000956 00000-0 11554-3 0 9994
2 39770 97.8689 155.3813 0008678 348.8193 11.2843 14.85993291149303
DUCHIFAT-1
1 40021U 14033M 17054.18743997 .00000629 00000-0 71538-4 0 9998
2 40021 97.9235 327.1687 0012324 322.3082 37.7270 14.89730572145620
NANOSATCBR1
1 40024U 14033Q 17054.20589657 .00000513 00000-0 60416-4 0 9990
2 40024 97.9201 326.2480 0011595 323.4206 36.6218 14.89078458145589
EO-79
1 40025U 14033R 17054.32711919 .00000498 00000-0 59882-4 0 9999
2 40025 97.9188 325.5734 0011814 325.4105 34.6342 14.88309062145552
DTUSAT-2
1 40030U 14033W 17054.43812699 .00000503 00000-0 60967-4 0 9997
2 40030 97.9158 324.9109 0011137 319.0375 41.0003 14.87934993145530
EO-80
1 40032U 14033Y 17054.20633792 .00000425 00000-0 52569-4 0 9991
2 40032 97.9165 324.6870 0011103 320.3933 39.6471 14.87868627145497
ANTELSAT
1 40034U 14033AA 17053.80500038 .00000386 00000-0 65587-4 0 9994
2 40034 97.8755 301.1765 0058028 301.5827 57.9724 14.73612848144070
VELOX-1
1 40057U 14034E 17054.82929721 .00000408 00000-0 65415-4 0 9992
2 40057 98.1851 153.3815 0012243 64.8943 295.3537 14.77007029143023
DAURIA DX 1
1 40071U 14037C 17054.89574680 .00000177 00000-0 30315-4 0 9992
2 40071 98.3291 161.5373 0009805 61.5055 298.7138 14.80962410142208
UKUBE-1
1 40074U 14037F 17054.83969072 .00000489 00000-0 66694-4 0 9997
2 40074 98.3359 164.7561 0005794 64.4890 295.6917 14.83382060142371
